2023/01/28 00:00:00,82.3,-3.8
2023/01/28 00:10:00,82.1,-3.4
2023/01/28 00:20:00,82.0,-3.4
2023/01/28 00:30:00,82.0,-3.7
2023/01/28 00:40:00,82.0,-3.6
2023/01/28 00:50:00,81.9,-3.8
2023/01/28 01:00:00,81.7,-3.9
2023/01/28 01:10:00,81.7,-3.6
2023/01/28 01:20:00,81.5,-3.7
2023/01/28 01:30:00,81.4,-3.7
2023/01/28 01:40:00,81.3,-3.3
2023/01/28 01:50:00,81.2,-3.5
2023/01/28 02:00:00,81.3,-3.8
2023/01/28 02:10:00,81.4,-3.7
2023/01/28 02:20:00,81.7,-3.7
2023/01/28 02:30:00,82.0,-3.7
2023/01/28 02:40:00,82.7,-3.6
2023/01/28 02:50:00,83.2,-3.6
2023/01/28 03:00:00,83.4,-3.6
2023/01/28 03:10:00,83.4,-3.5
2023/01/28 03:20:00,83.7,-4.0
2023/01/28 03:30:00,83.7,-3.6
2023/01/28 03:40:00,83.8,-3.8
2023/01/28 03:50:00,84.7,-3.8
2023/01/28 04:00:00,86.1,-3.5
2023/01/28 04:10:00,86.9,-3.7
2023/01/28 04:20:00,87.5,-3.5
2023/01/28 04:30:00,88.2,-3.4
2023/01/28 04:40:00,89.0,-3.8
2023/01/28 04:50:00,89.5,-3.8
2023/01/28 05:00:00,89.8,-3.5
2023/01/28 05:10:00,89.9,-3.7
2023/01/28 05:20:00,90.1,-3.9
2023/01/28 05:30:00,90.0,-3.6
2023/01/28 05:40:00,90.5,-3.5
2023/01/28 05:50:00,91.5,-3.5
2023/01/28 06:00:00,92.8,-3.5
2023/01/28 06:10:00,93.3,-3.6
2023/01/28 06:20:00,93.6,-3.4
2023/01/28 06:30:00,93.3,-3.5
2023/01/28 06:40:00,93.3,-3.6
2023/01/28 06:50:00,93.6,-3.5
2023/01/28 07:00:00,94.2,-3.5
2023/01/28 07:10:00,94.8,-3.4
2023/01/28 07:20:00,95.2,-3.4
2023/01/28 07:30:00,95.7,-3.2
2023/01/28 07:40:00,95.9,-3.2
2023/01/28 07:50:00,96.1,-2.9
2023/01/28 08:00:00,96.1,-2.8
2023/01/28 08:10:00,95.8,-2.6
2023/01/28 08:20:00,95.7,-2.5
2023/01/28 08:30:00,96.3,-2.4
2023/01/28 08:40:00,96.8,-2.1
2023/01/28 08:50:00,97.7,-2.0
2023/01/28 09:00:00,97.8,-2.1
2023/01/28 09:10:00,97.7,-1.7
2023/01/28 09:20:00,97.7,-1.2
2023/01/28 09:30:00,97.9,-1.5
2023/01/28 09:40:00,97.9,-1.1
2023/01/28 09:50:00,97.8,-0.5
2023/01/28 10:00:00,97.7,-0.6
2023/01/28 10:10:00,97.7,-0.9
2023/01/28 10:20:00,97.9,-0.9
2023/01/28 10:30:00,98.1,-1.0
2023/01/28 10:40:00,98.1,-0.7
2023/01/28 10:50:00,97.9,-0.9
2023/01/28 11:00:00,97.8,-0.6
2023/01/28 11:10:00,98.1, 0.0
2023/01/28 11:20:00,98.4,-0.4
2023/01/28 11:30:00,98.4,-0.8
2023/01/28 11:40:00,98.6,-0.6
2023/01/28 11:50:00,98.9,-0.3
2023/01/28 12:00:00,99.5,-0.7
2023/01/28 12:10:00,99.7,-0.4
2023/01/28 12:20:00,99.6,-0.2
2023/01/28 12:30:00,99.6,-0.1
2023/01/28 12:40:00,99.8,-0.5
2023/01/28 12:50:00,100.1,-0.4
2023/01/28 13:00:00,100.2,-0.4
2023/01/28 13:10:00,100.2,-0.9
2023/01/28 13:20:00,100.4,-1.2
2023/01/28 13:30:00,100.5,-1.4
2023/01/28 13:40:00,100.2,-1.2
2023/01/28 13:50:00,100.0,-0.3
2023/01/28 14:00:00,99.7,-0.2
2023/01/28 14:10:00,99.6, 0.0
2023/01/28 14:20:00,99.4,-0.4
2023/01/28 14:30:00,99.2, 0.2
2023/01/28 14:40:00,99.0, 0.4
2023/01/28 14:50:00,98.7, 0.8
2023/01/28 15:00:00,98.6, 1.1
2023/01/28 15:10:00,98.5, 0.0
2023/01/28 15:20:00,98.4,-0.7
2023/01/28 15:30:00,98.4,-1.6
2023/01/28 15:40:00,98.6,-1.4
2023/01/28 15:50:00,98.7,-1.8
2023/01/28 16:00:00,98.6,-2.4
2023/01/28 16:10:00,98.6,-2.4
2023/01/28 16:20:00,98.4,-2.4
2023/01/28 16:30:00,98.2,-2.8
2023/01/28 16:40:00,98.1,-3.2
2023/01/28 16:50:00,98.1,-3.1
2023/01/28 17:00:00,98.0,-3.4
2023/01/28 17:10:00,97.9,-3.5
2023/01/28 17:20:00,98.0,-3.3
2023/01/28 17:30:00,98.1,-3.5
2023/01/28 17:40:00,98.3,-3.7
2023/01/28 17:50:00,98.4,-3.7
2023/01/28 18:00:00,98.3,-3.8
2023/01/28 18:10:00,98.1,-4.0
2023/01/28 18:20:00,98.0,-4.1
2023/01/28 18:30:00,97.9,-4.3
2023/01/28 18:40:00,98.0,-4.1
2023/01/28 18:50:00,98.2,-4.1
2023/01/28 19:00:00,98.5,-4.2
2023/01/28 19:10:00,98.4,-4.4
2023/01/28 19:20:00,98.4,-4.3
2023/01/28 19:30:00,98.3,-4.5
2023/01/28 19:40:00,98.6,-4.4
2023/01/28 19:50:00,99.6,-4.4
2023/01/28 20:00:00,99.8,-4.7
2023/01/28 20:10:00,99.8,-4.5
2023/01/28 20:20:00,99.6,-4.6
2023/01/28 20:30:00,99.5,-4.4
2023/01/28 20:40:00,99.5,-4.2
2023/01/28 20:50:00,99.4,-4.1
2023/01/28 21:00:00,99.3,-4.3
2023/01/28 21:10:00,99.1,-4.4
2023/01/28 21:20:00,99.1,-4.3
2023/01/28 21:30:00,98.9,-4.4
2023/01/28 21:40:00,98.7,-4.4
2023/01/28 21:50:00,98.6,-4.6
2023/01/28 22:00:00,98.5,-4.3
2023/01/28 22:10:00,98.3,-4.4
2023/01/28 22:20:00,98.1,-4.5
2023/01/28 22:30:00,98.1,-4.3
2023/01/28 22:40:00,98.6,-4.4
2023/01/28 22:50:00,98.9,-4.3
2023/01/28 23:00:00,98.6,-4.3
2023/01/28 23:10:00,98.5,-4.3
2023/01/28 23:20:00,98.6,-4.3
2023/01/28 23:30:00,98.9,-4.3
2023/01/28 23:40:00,99.5,-4.2
2023/01/28 23:50:00,99.3,-4.2
